Weather History for PASC - November, 2012

Change the Weather History Date:

Sunday, November 4, 2012

  Actual Average Record
Temperature  
Mean Temperature -7 °F -  
Max Temperature 1 °F 9 °F 32 °F (1990)
Min Temperature -15 °F 0 °F -27 °F (2005)
Degree Days  
Heating Degree Days 72    
Moisture  
Dew Point -11 °F    
Average Humidity 81    
Maximum Humidity 83    
Minimum Humidity 78    
Precipitation  
Precipitation 0.00 in - - ()
Sea Level Pressure  
Sea Level Pressure 30.09 in    
Wind  
Wind Speed 13 mph (SW)    
Max Wind Speed 16 mph    
Max Gust Speed -    
Visibility 10 miles    
Events      
Averages and records for this station are not official NWS values.
T = Trace of Precipitation, MM = Missing Value Source: NWS Daily Summary

Daily Weather History Graph

Daily Weather History Graph

Search for Another Location

Airport or City:

Trip Planner

Search our weather history database for the weather conditions in past years. The results will help you decide how hot, cold, wet, or windy it might be!

Date:

Astronomy

Nov. 04, 2012 Rise Set
Actual Time 9:46 AM AKST 3:27 PM AKST
Civil Twilight 8:26 AM AKST 4:47 PM AKST
Nautical Twilight 7:09 AM AKST 6:03 PM AKST
Astronomical Twilight 5:58 AM AKST 7:14 PM AKST
Moon 7:31 PM AKST (11/4) 3:27 PM AKST (11/4)
Length of Visible Light 8h 20m
Length of Day
5h 40m
Waning Gibbous, 70% of the Moon is Illuminated
Nov 4
Waning Gibbous
Nov 6
Last Quarter
Nov 13
New
Nov 20
First Quarter
Nov 28
Full

Hourly Weather History & Observations

Time (AKST) Temp. Windchill Dew Point Humidity Pressure Visibility Wind Dir Wind Speed Gust Speed Precip Events Conditions
12:53 AM 1.9 °F -13.8 °F -2.0 °F 83% 30.17 in 10.0 mi WSW 10.4 mph - N/A   Overcast
1:53 AM 1.9 °F -14.7 °F -2.0 °F 83% 30.17 in 10.0 mi SW 11.5 mph - N/A   Overcast
1:53 AM 1.9 °F -15.5 °F -2.9 °F 80% 30.16 in 10.0 mi WSW 12.7 mph - N/A   Overcast
2:53 AM 1.0 °F -16.6 °F -2.9 °F 83% 30.14 in 10.0 mi SW 12.7 mph - N/A   Overcast
3:53 AM 1.0 °F -15.8 °F -2.9 °F 83% 30.14 in 10.0 mi WSW 11.5 mph - N/A   Overcast
4:53 AM 1.0 °F -14.9 °F -2.9 °F 83% 30.12 in 10.0 mi SW 10.4 mph - N/A   Overcast
5:53 AM 1.0 °F -17.3 °F -2.9 °F 83% 30.11 in 10.0 mi WSW 13.8 mph - N/A   Overcast
6:53 AM -0.0 °F -18.7 °F -4.0 °F 83% 30.09 in 10.0 mi WSW 13.8 mph - N/A   Overcast
7:53 AM -0.9 °F -18.3 °F -5.1 °F 83% 30.09 in 10.0 mi SW 11.5 mph - N/A   Overcast
8:53 AM -4.0 °F -22.1 °F -8.0 °F 83% 30.09 in 10.0 mi WSW 11.5 mph - N/A   Overcast
9:53 AM -6.0 °F -27.0 °F -9.9 °F 83% 30.07 in 10.0 mi SW 15.0 mph - N/A   Mostly Cloudy
10:53 AM -8.0 °F -30.3 °F -13.0 °F 79% 30.07 in 10.0 mi WSW 16.1 mph - N/A   Mostly Cloudy
11:53 AM -11.9 °F -34.6 °F -17.0 °F 78% 30.06 in 10.0 mi WSW 15.0 mph - N/A   Partly Cloudy
12:53 PM -14.1 °F -36.6 °F -18.0 °F 82% 30.06 in 10.0 mi WSW 13.8 mph - N/A   Partly Cloudy
1:53 PM -15.0 °F -39.3 °F -20.0 °F 78% 30.05 in 10.0 mi SW 16.1 mph - N/A   Partly Cloudy
2:53 PM -15.0 °F -39.3 °F -20.0 °F 78% 30.04 in 9.0 mi SW 16.1 mph - N/A   Scattered Clouds
3:53 PM -15.0 °F -38.5 °F -20.0 °F 78% 30.04 in 9.0 mi SW 15.0 mph - N/A   Mostly Cloudy
4:53 PM -15.0 °F -36.8 °F -20.0 °F 78% 30.04 in 9.0 mi SW 12.7 mph - N/A   Mostly Cloudy
5:53 PM -13.0 °F -36.8 °F -18.0 °F 78% 30.04 in 9.0 mi SW 16.1 mph - N/A   Mostly Cloudy
6:53 PM -11.9 °F -35.4 °F -16.1 °F 82% 30.05 in 9.0 mi WSW 16.1 mph - 0.00 in   Overcast
7:53 PM -9.9 °F -32.1 °F -15.0 °F 78% 30.05 in 9.0 mi SW 15.0 mph - N/A   Overcast
8:53 PM -9.0 °F -30.9 °F -14.1 °F 79% 30.05 in 9.0 mi SW 15.0 mph - N/A   Overcast
9:53 PM -11.0 °F -33.5 °F -15.0 °F 83% 30.07 in 10.0 mi SW 15.0 mph - N/A   Scattered Clouds
10:53 PM -11.9 °F -33.8 °F -17.0 °F 78% 30.08 in 10.0 mi SW 13.8 mph - N/A   Partly Cloudy